owner,sensor,date,latitude,longitude,vertical_datum,mass_concentration_of_oxygen_in_sea_water,qcFlag 
DISL,ioos:station:DISL:DISL:1,2010-01-01T06:30:00Z,30.2513,-88.0778,6.632,10.81,1111122 
DISL,ioos:station:DISL:DISL:1,2010-01-01T07:00:00Z,30.2513,-88.0778,6.632,10.81,1111122 
DISL,ioos:station:DISL:DISL:1,2010-01-01T07:30:00Z,30.2513,-88.0778,6.632,10.81,1111122 
DISL,ioos:station:DISL:DISL:1,2010-01-01T08:00:00Z,30.2513,-88.0778,6.632,10.81,1111122 
DISL,ioos:station:DISL:DISL:1,2010-01-01T08:30:00Z,30.2513,-88.0778,6.632,10.81,1111122 
DISL,ioos:station:DISL:DISL:1,2010-01-01T09:00:00Z,30.2513,-88.0778,6.632,10.81,1111122 
DISL,ioos:station:DISL:DISL:1,2010-01-01T09:30:00Z,30.2513,-88.0778,6.632,10.81,1111122 
DISL,ioos:station:DISL:DISL:1,2010-01-01T10:00:00Z,30.2513,-88.0778,6.632,10.81,1111122 
DISL,ioos:station:DISL:DISL:1,2010-01-01T10:30:00Z,30.2513,-88.0778,6.632,10.81,1111122 
DISL,ioos:station:DISL:DISL:1,2010-01-01T11:00:00Z,30.2513,-88.0778,6.632,10.81,1111122 
DISL,ioos:station:DISL:DISL:1,2010-01-01T11:30:00Z,30.2513,-88.0778,6.632,10.81,1111122 
DISL,ioos:station:DISL:DISL:1,2010-01-01T12:00:00Z,30.2513,-88.0778,6.632,10.81,1111122 
DISL,ioos:station:DISL:DISL:1,2010-01-01T12:30:00Z,30.2513,-88.0778,6.632,10.81,1111122 
DISL,ioos:station:DISL:DISL:1,2010-01-01T13:00:00Z,30.2513,-88.0778,6.632,10.81,1111122 
DISL,ioos:station:DISL:DISL:1,2010-01-01T13:30:00Z,30.2513,-88.0778,6.632,10.81,1111122 
DISL,ioos:station:DISL:DISL:1,2010-01-01T14:00:00Z,30.2513,-88.0778,6.632,10.81,1111122 
DISL,ioos:station:DISL:DISL:1,2010-01-01T14:30:00Z,30.2513,-88.0778,6.632,10.81,1111122 
DISL,ioos:station:DISL:DISL:1,2010-01-01T15:00:00Z,30.2513,-88.0778,6.632,10.81,1111122 
DISL,ioos:station:DISL:DISL:1,2010-01-01T15:30:00Z,30.2513,-88.0778,6.632,10.81,1111122 
DISL,ioos:station:DISL:DISL:1,2010-01-01T16:00:00Z,30.2513,-88.0778,6.632,10.81,1111122 
DISL,ioos:station:DISL:DISL:1,2010-01-01T16:30:00Z,30.2513,-88.0778,6.632,10.81,1111122 
DISL,ioos:station:DISL:DISL:1,2010-01-01T17:00:00Z,30.2513,-88.0778,6.632,10.81,1111122 
DISL,ioos:station:DISL:DISL:1,2010-01-01T17:30:00Z,30.2513,-88.0778,6.632,10.81,1111122 
DISL,ioos:station:DISL:DISL:1,2010-01-01T18:00:00Z,30.2513,-88.0778,6.632,10.81,1111122 
DISL,ioos:station:DISL:DISL:1,2010-01-01T18:30:00Z,30.2513,-88.0778,6.632,10.81,1111122 
DISL,ioos:station:DISL:DISL:1,2010-01-01T19:00:00Z,30.2513,-88.0778,6.632,10.81,1111122 
DISL,ioos:station:DISL:DISL:1,2010-01-01T19:30:00Z,30.2513,-88.0778,6.632,10.81,1111122 
DISL,ioos:station:DISL:DISL:1,2010-01-01T20:00:00Z,30.2513,-88.0778,6.632,10.81,1111122 
DISL,ioos:station:DISL:DISL:1,2010-01-01T20:30:00Z,30.2513,-88.0778,6.632,10.81,1111122 
DISL,ioos:station:DISL:DISL:1,2010-01-01T21:00:00Z,30.2513,-88.0778,6.632,10.81,1111122 
DISL,ioos:station:DISL:DISL:1,2010-01-01T21:30:00Z,30.2513,-88.0778,6.632,10.81,1111122 
DISL,ioos:station:DISL:DISL:1,2010-01-01T22:00:00Z,30.2513,-88.0778,6.632,10.81,1111122 
DISL,ioos:station:DISL:DISL:1,2010-01-01T22:30:00Z,30.2513,-88.0778,6.632,10.81,1111122 
DISL,ioos:station:DISL:DISL:1,2010-01-01T23:00:00Z,30.2513,-88.0778,6.632,10.81,1111122 
DISL,ioos:station:DISL:DISL:1,2010-01-01T23:30:00Z,30.2513,-88.0778,6.632,10.81,1111122 
DISL,ioos:station:DISL:DISL:1,2010-01-02T00:00:00Z,30.2513,-88.0778,6.632,10.81,1111122 
DISL,ioos:station:DISL:DISL:1,2010-01-02T00:30:00Z,30.2513,-88.0778,6.632,10.81,1111122 
DISL,ioos:station:DISL:DISL:1,2010-01-02T01:00:00Z,30.2513,-88.0778,6.632,10.81,1111122 
DISL,ioos:station:DISL:DISL:1,2010-01-02T01:30:00Z,30.2513,-88.0778,6.632,10.81,1111122 
DISL,ioos:station:DISL:DISL:1,2010-01-02T02:00:00Z,30.2513,-88.0778,6.632,10.81,1111122 
DISL,ioos:station:DISL:DISL:1,2010-01-02T02:30:00Z,30.2513,-88.0778,6.632,10.81,1111122 
DISL,ioos:station:DISL:DISL:1,2010-01-02T03:00:00Z,30.2513,-88.0778,6.632,10.81,1111122 
DISL,ioos:station:DISL:DISL:1,2010-01-02T03:30:00Z,30.2513,-88.0778,6.632,10.81,1111122 
DISL,ioos:station:DISL:DISL:1,2010-01-02T04:00:00Z,30.2513,-88.0778,6.632,10.81,1111122 
DISL,ioos:station:DISL:DISL:1,2010-01-02T04:30:00Z,30.2513,-88.0778,6.632,10.81,1111122 
DISL,ioos:station:DISL:DISL:1,2010-01-02T05:00:00Z,30.2513,-88.0778,6.632,10.81,1111122 
DISL,ioos:station:DISL:DISL:1,2010-01-02T05:30:00Z,30.2513,-88.0778,6.632,10.81,1111122 
DISL,ioos:station:DISL:DISL:1,2010-01-02T06:00:00Z,30.2513,-88.0778,6.632,10.81,1111122 
DISL,ioos:station:DISL:DISL:1,2010-01-02T06:30:00Z,30.2513,-88.0778,6.632,10.81,1111122 
DISL,ioos:station:DISL:DISL:1,2010-01-02T07:00:00Z,30.2513,-88.0778,6.632,10.81,1111122 
DISL,ioos:station:DISL:DISL:1,2010-01-02T07:30:00Z,30.2513,-88.0778,6.632,10.81,1111122 
DISL,ioos:station:DISL:DISL:1,2010-01-02T08:00:00Z,30.2513,-88.0778,6.632,10.81,1111122 
DISL,ioos:station:DISL:DISL:1,2010-01-02T08:30:00Z,30.2513,-88.0778,6.632,10.81,1111122 
DISL,ioos:station:DISL:DISL:1,2010-01-02T09:00:00Z,30.2513,-88.0778,6.632,10.81,1111122 
DISL,ioos:station:DISL:DISL:1,2010-01-02T09:30:00Z,30.2513,-88.0778,6.632,10.81,1111122 
DISL,ioos:station:DISL:DISL:1,2010-01-02T10:00:00Z,30.2513,-88.0778,6.632,10.81,1111122 
DISL,ioos:station:DISL:DISL:1,2010-01-02T10:30:00Z,30.2513,-88.0778,6.632,10.81,1111122 
DISL,ioos:station:DISL:DISL:1,2010-01-02T11:00:00Z,30.2513,-88.0778,6.632,10.81,1111122 
DISL,ioos:station:DISL:DISL:1,2010-01-02T11:30:00Z,30.2513,-88.0778,6.632,10.81,1111122 
DISL,ioos:station:DISL:DISL:1,2010-01-02T12:00:00Z,30.2513,-88.0778,6.632,10.81,1111122 
DISL,ioos:station:DISL:DISL:1,2010-01-02T12:30:00Z,30.2513,-88.0778,6.632,10.81,1111122 
DISL,ioos:station:DISL:DISL:1,2010-01-02T13:00:00Z,30.2513,-88.0778,6.632,10.81,1111122 
DISL,ioos:station:DISL:DISL:1,2010-01-02T13:30:00Z,30.2513,-88.0778,6.632,10.81,1111122 
DISL,ioos:station:DISL:DISL:1,2010-01-02T14:00:00Z,30.2513,-88.0778,6.632,10.81,1111122 
DISL,ioos:station:DISL:DISL:1,2010-01-02T14:30:00Z,30.2513,-88.0778,6.632,10.81,1111122 
DISL,ioos:station:DISL:DISL:1,2010-01-02T15:00:00Z,30.2513,-88.0778,6.632,10.81,1111122 
DISL,ioos:station:DISL:DISL:1,2010-01-02T15:30:00Z,30.2513,-88.0778,6.632,10.81,1111122 
DISL,ioos:station:DISL:DISL:1,2010-01-02T16:00:00Z,30.2513,-88.0778,6.632,10.81,1111122 
DISL,ioos:station:DISL:DISL:1,2010-01-02T16:30:00Z,30.2513,-88.0778,6.632,10.81,1111122 
DISL,ioos:station:DISL:DISL:1,2010-01-02T17:00:00Z,30.2513,-88.0778,6.632,10.81,1111122 
DISL,ioos:station:DISL:DISL:1,2010-01-02T17:30:00Z,30.2513,-88.0778,6.632,10.81,1111122 
DISL,ioos:station:DISL:DISL:1,2010-01-02T18:00:00Z,30.2513,-88.0778,6.632,10.81,1111122 
DISL,ioos:station:DISL:DISL:1,2010-01-02T18:30:00Z,30.2513,-88.0778,6.632,10.81,1111122 
DISL,ioos:station:DISL:DISL:1,2010-01-02T19:00:00Z,30.2513,-88.0778,6.632,10.81,1111122 
DISL,ioos:station:DISL:DISL:1,2010-01-02T19:30:00Z,30.2513,-88.0778,6.632,10.81,1111122 
DISL,ioos:station:DISL:DISL:1,2010-01-02T20:00:00Z,30.2513,-88.0778,6.632,10.81,1111122 
DISL,ioos:station:DISL:DISL:1,2010-01-02T20:30:00Z,30.2513,-88.0778,6.632,10.81,1111122 
DISL,ioos:station:DISL:DISL:1,2010-01-02T21:00:00Z,30.2513,-88.0778,6.632,10.81,1111122 
DISL,ioos:station:DISL:DISL:1,2010-01-02T21:30:00Z,30.2513,-88.0778,6.632,10.81,1111122 
DISL,ioos:station:DISL:DISL:1,2010-01-02T22:00:00Z,30.2513,-88.0778,6.632,10.81,1111122 
DISL,ioos:station:DISL:DISL:1,2010-01-02T22:30:00Z,30.2513,-88.0778,6.632,10.81,1111122 
DISL,ioos:station:DISL:DISL:1,2010-01-02T23:00:00Z,30.2513,-88.0778,6.632,10.81,1111122 
DISL,ioos:station:DISL:DISL:1,2010-01-02T23:30:00Z,30.2513,-88.0778,6.632,10.81,1111122 
DISL,ioos:station:DISL:DISL:1,2010-01-03T00:00:00Z,30.2513,-88.0778,6.632,10.81,1111122 
DISL,ioos:station:DISL:DISL:1,2010-01-03T00:30:00Z,30.2513,-88.0778,6.632,10.81,1111122 
DISL,ioos:station:DISL:DISL:1,2010-01-03T01:00:00Z,30.2513,-88.0778,6.632,10.81,1111122 
DISL,ioos:station:DISL:DISL:1,2010-01-03T01:30:00Z,30.2513,-88.0778,6.632,10.81,1111122 
DISL,ioos:station:DISL:DISL:1,2010-01-03T02:00:00Z,30.2513,-88.0778,6.632,10.81,1111122 
DISL,ioos:station:DISL:DISL:1,2010-01-03T02:30:00Z,30.2513,-88.0778,6.632,10.81,1111122 
DISL,ioos:station:DISL:DISL:1,2010-01-03T03:00:00Z,30.2513,-88.0778,6.632,10.81,1111122 
DISL,ioos:station:DISL:DISL:1,2010-01-03T03:30:00Z,30.2513,-88.0778,6.632,10.81,1111122 
DISL,ioos:station:DISL:DISL:1,2010-01-03T04:00:00Z,30.2513,-88.0778,6.632,10.81,1111122 
DISL,ioos:station:DISL:DISL:1,2010-01-03T04:30:00Z,30.2513,-88.0778,6.632,10.81,1111122 
DISL,ioos:station:DISL:DISL:1,2010-01-03T05:00:00Z,30.2513,-88.0778,6.632,10.81,1111122 
DISL,ioos:station:DISL:DISL:1,2010-01-03T05:30:00Z,30.2513,-88.0778,6.632,10.81,1111122 
DISL,ioos:station:DISL:DISL:1,2010-01-03T06:00:00Z,30.2513,-88.0778,6.632,10.81,1111122 
DISL,ioos:station:DISL:DISL:1,2010-01-03T06:30:00Z,30.2513,-88.0778,6.632,10.81,1111122 
DISL,ioos:station:DISL:DISL:1,2010-01-03T07:00:00Z,30.2513,-88.0778,6.632,10.81,1111122 
DISL,ioos:station:DISL:DISL:1,2010-01-03T07:30:00Z,30.2513,-88.0778,6.632,10.81,1111122 
DISL,ioos:station:DISL:DISL:1,2010-01-03T08:00:00Z,30.2513,-88.0778,6.632,10.81,1111122 
DISL,ioos:station:DISL:DISL:1,2010-01-03T08:30:00Z,30.2513,-88.0778,6.632,10.81,1111122 
DISL,ioos:station:DISL:DISL:1,2010-01-03T09:00:00Z,30.2513,-88.0778,6.632,10.81,1111122 
DISL,ioos:station:DISL:DISL:1,2010-01-03T09:30:00Z,30.2513,-88.0778,6.632,10.81,1111122 
DISL,ioos:station:DISL:DISL:1,2010-01-03T10:00:00Z,30.2513,-88.0778,6.632,10.81,1111122 
DISL,ioos:station:DISL:DISL:1,2010-01-03T10:30:00Z,30.2513,-88.0778,6.632,10.81,1111122 
DISL,ioos:station:DISL:DISL:1,2010-01-03T11:00:00Z,30.2513,-88.0778,6.632,10.81,1111122 
DISL,ioos:station:DISL:DISL:1,2010-01-03T11:30:00Z,30.2513,-88.0778,6.632,10.81,1111122 
DISL,ioos:station:DISL:DISL:1,2010-01-03T12:00:00Z,30.2513,-88.0778,6.632,10.81,1111122 
DISL,ioos:station:DISL:DISL:1,2010-01-03T12:30:00Z,30.2513,-88.0778,6.632,10.81,1111122 
DISL,ioos:station:DISL:DISL:1,2010-01-03T13:00:00Z,30.2513,-88.0778,6.632,10.81,1111122 
DISL,ioos:station:DISL:DISL:1,2010-01-03T13:30:00Z,30.2513,-88.0778,6.632,10.81,1111122 
DISL,ioos:station:DISL:DISL:1,2010-01-03T14:00:00Z,30.2513,-88.0778,6.632,10.81,1111122 
DISL,ioos:station:DISL:DISL:1,2010-01-03T14:30:00Z,30.2513,-88.0778,6.632,10.81,1111122 
DISL,ioos:station:DISL:DISL:1,2010-01-03T15:00:00Z,30.2513,-88.0778,6.632,10.81,1111122 
DISL,ioos:station:DISL:DISL:1,2010-01-03T15:30:00Z,30.2513,-88.0778,6.632,10.81,1111122 
DISL,ioos:station:DISL:DISL:1,2010-01-03T16:00:00Z,30.2513,-88.0778,6.632,10.81,1111122 
DISL,ioos:station:DISL:DISL:1,2010-01-03T16:30:00Z,30.2513,-88.0778,6.632,10.81,1111122 
DISL,ioos:station:DISL:DISL:1,2010-01-03T17:00:00Z,30.2513,-88.0778,6.632,10.81,1111122 
DISL,ioos:station:DISL:DISL:1,2010-01-03T17:30:00Z,30.2513,-88.0778,6.632,10.81,1111122 
DISL,ioos:station:DISL:DISL:1,2010-01-03T18:00:00Z,30.2513,-88.0778,6.632,10.81,1111122 
DISL,ioos:station:DISL:DISL:1,2010-01-03T18:30:00Z,30.2513,-88.0778,6.632,10.81,1111122 
DISL,ioos:station:DISL:DISL:1,2010-01-03T19:00:00Z,30.2513,-88.0778,6.632,10.81,1111122 
DISL,ioos:station:DISL:DISL:1,2010-01-03T19:30:00Z,30.2513,-88.0778,6.632,10.81,1111122 
DISL,ioos:station:DISL:DISL:1,2010-01-03T20:00:00Z,30.2513,-88.0778,6.632,10.81,1111122 
DISL,ioos:station:DISL:DISL:1,2010-01-03T20:30:00Z,30.2513,-88.0778,6.632,10.81,1111122 
DISL,ioos:station:DISL:DISL:1,2010-01-03T21:00:00Z,30.2513,-88.0778,6.632,10.81,1111122 
DISL,ioos:station:DISL:DISL:1,2010-01-03T21:30:00Z,30.2513,-88.0778,6.632,10.81,1111122 
DISL,ioos:station:DISL:DISL:1,2010-01-03T22:00:00Z,30.2513,-88.0778,6.632,10.81,1111122 
DISL,ioos:station:DISL:DISL:1,2010-01-03T22:30:00Z,30.2513,-88.0778,6.632,10.81,1111122 
DISL,ioos:station:DISL:DISL:1,2010-01-03T23:00:00Z,30.2513,-88.0778,6.632,10.81,1111122 
DISL,ioos:station:DISL:DISL:1,2010-01-03T23:30:00Z,30.2513,-88.0778,6.632,10.81,1111122 
DISL,ioos:station:DISL:DISL:1,2010-01-04T00:00:00Z,30.2513,-88.0778,6.632,10.81,1111122 
DISL,ioos:station:DISL:DISL:1,2010-01-04T00:30:00Z,30.2513,-88.0778,6.632,10.81,1111122 
DISL,ioos:station:DISL:DISL:1,2010-01-04T01:00:00Z,30.2513,-88.0778,6.632,10.81,1111122 
DISL,ioos:station:DISL:DISL:1,2010-01-04T01:30:00Z,30.2513,-88.0778,6.632,10.81,1111122 
DISL,ioos:station:DISL:DISL:1,2010-01-04T02:00:00Z,30.2513,-88.0778,6.632,10.81,1111122 
DISL,ioos:station:DISL:DISL:1,2010-01-04T02:30:00Z,30.2513,-88.0778,6.632,10.81,1111122 
DISL,ioos:station:DISL:DISL:1,2010-01-04T03:00:00Z,30.2513,-88.0778,6.632,10.81,1111122 
DISL,ioos:station:DISL:DISL:1,2010-01-04T03:30:00Z,30.2513,-88.0778,6.632,10.81,1111122 
DISL,ioos:station:DISL:DISL:1,2010-01-04T04:00:00Z,30.2513,-88.0778,6.632,10.81,1111122 
DISL,ioos:station:DISL:DISL:1,2010-01-04T04:30:00Z,30.2513,-88.0778,6.632,10.81,1111122 
DISL,ioos:station:DISL:DISL:1,2010-01-04T05:00:00Z,30.2513,-88.0778,6.632,10.81,1111122 
DISL,ioos:station:DISL:DISL:1,2010-01-04T05:30:00Z,30.2513,-88.0778,6.632,10.81,1111122 
DISL,ioos:station:DISL:DISL:1,2010-01-04T06:00:00Z,30.2513,-88.0778,6.632,10.81,1111122 
DISL,ioos:station:DISL:DISL:1,2010-01-04T06:30:00Z,30.2513,-88.0778,6.632,10.81,1111122 
DISL,ioos:station:DISL:DISL:1,2010-01-04T07:00:00Z,30.2513,-88.0778,6.632,10.81,1111122 
DISL,ioos:station:DISL:DISL:1,2010-01-04T07:30:00Z,30.2513,-88.0778,6.632,10.81,1111122 
DISL,ioos:station:DISL:DISL:1,2010-01-04T08:00:00Z,30.2513,-88.0778,6.632,10.81,1111122 
DISL,ioos:station:DISL:DISL:1,2010-01-04T08:30:00Z,30.2513,-88.0778,6.632,10.81,1111122 
DISL,ioos:station:DISL:DISL:1,2010-01-04T09:00:00Z,30.2513,-88.0778,6.632,10.81,1111122 
DISL,ioos:station:DISL:DISL:1,2010-01-04T09:30:00Z,30.2513,-88.0778,6.632,10.81,1111122 
DISL,ioos:station:DISL:DISL:1,2010-01-04T10:00:00Z,30.2513,-88.0778,6.632,10.81,1111122 
DISL,ioos:station:DISL:DISL:1,2010-01-04T10:30:00Z,30.2513,-88.0778,6.632,10.81,1111122 
DISL,ioos:station:DISL:DISL:1,2010-01-04T11:00:00Z,30.2513,-88.0778,6.632,10.81,1111122 
DISL,ioos:station:DISL:DISL:1,2010-01-04T11:30:00Z,30.2513,-88.0778,6.632,10.81,1111122 
DISL,ioos:station:DISL:DISL:1,2010-01-04T12:00:00Z,30.2513,-88.0778,6.632,10.81,1111122 
DISL,ioos:station:DISL:DISL:1,2010-01-04T12:30:00Z,30.2513,-88.0778,6.632,10.81,1111122 
DISL,ioos:station:DISL:DISL:1,2010-01-04T13:00:00Z,30.2513,-88.0778,6.632,10.81,1111122 
DISL,ioos:station:DISL:DISL:1,2010-01-04T13:30:00Z,30.2513,-88.0778,6.632,10.81,1111122 
DISL,ioos:station:DISL:DISL:1,2010-01-04T14:00:00Z,30.2513,-88.0778,6.632,10.81,1111122 
DISL,ioos:station:DISL:DISL:1,2010-01-04T14:30:00Z,30.2513,-88.0778,6.632,10.81,1111122 
DISL,ioos:station:DISL:DISL:1,2010-01-04T15:00:00Z,30.2513,-88.0778,6.632,10.81,1111122 
DISL,ioos:station:DISL:DISL:1,2010-01-04T15:30:00Z,30.2513,-88.0778,6.632,10.81,1111122 
DISL,ioos:station:DISL:DISL:1,2010-01-04T16:00:00Z,30.2513,-88.0778,6.632,10.81,1111122 
DISL,ioos:station:DISL:DISL:1,2010-01-04T16:30:00Z,30.2513,-88.0778,6.632,10.81,1111122 
DISL,ioos:station:DISL:DISL:1,2010-01-04T17:00:00Z,30.2513,-88.0778,6.632,10.81,1111122 
DISL,ioos:station:DISL:DISL:1,2010-01-04T17:30:00Z,30.2513,-88.0778,6.632,10.81,1111122 
DISL,ioos:station:DISL:DISL:1,2010-01-04T18:00:00Z,30.2513,-88.0778,6.632,10.81,1111122 
DISL,ioos:station:DISL:DISL:1,2010-01-04T18:30:00Z,30.2513,-88.0778,6.632,10.81,1111122 
DISL,ioos:station:DISL:DISL:1,2010-01-04T19:00:00Z,30.2513,-88.0778,6.632,10.81,1111122 
DISL,ioos:station:DISL:DISL:1,2010-01-04T19:30:00Z,30.2513,-88.0778,6.632,10.81,1111122 
DISL,ioos:station:DISL:DISL:1,2010-01-04T20:00:00Z,30.2513,-88.0778,6.632,10.81,1111122 
DISL,ioos:station:DISL:DISL:1,2010-01-04T20:30:00Z,30.2513,-88.0778,6.632,10.81,1111122 
DISL,ioos:station:DISL:DISL:1,2010-01-04T21:00:00Z,30.2513,-88.0778,6.632,10.81,1111122 
DISL,ioos:station:DISL:DISL:1,2010-01-04T21:30:00Z,30.2513,-88.0778,6.632,10.81,1111122 
DISL,ioos:station:DISL:DISL:1,2010-01-04T22:00:00Z,30.2513,-88.0778,6.632,10.81,1111122 
DISL,ioos:station:DISL:DISL:1,2010-01-04T22:30:00Z,30.2513,-88.0778,6.632,10.81,1111122 
DISL,ioos:station:DISL:DISL:1,2010-01-04T23:00:00Z,30.2513,-88.0778,1.788,11.35,1111122 
DISL,ioos:station:DISL:DISL:1,2010-01-04T23:30:00Z,30.2513,-88.0778,1.919,11.48,1111122 
DISL,ioos:station:DISL:DISL:1,2010-01-05T00:00:00Z,30.2513,-88.0778,1.807,11.56,1111122 
DISL,ioos:station:DISL:DISL:1,2010-01-05T00:30:00Z,30.2513,-88.0778,1.797,11.57,1111122 
DISL,ioos:station:DISL:DISL:1,2010-01-05T01:00:00Z,30.2513,-88.0778,1.817,11.62,1111122 
DISL,ioos:station:DISL:DISL:1,2010-01-05T01:30:00Z,30.2513,-88.0778,1.858,11.6,1111122 
DISL,ioos:station:DISL:DISL:1,2010-01-05T02:00:00Z,30.2513,-88.0778,1.854,11.61,1111122 
DISL,ioos:station:DISL:DISL:1,2010-01-05T02:30:00Z,30.2513,-88.0778,1.849,11.65,1111122 
DISL,ioos:station:DISL:DISL:1,2010-01-05T03:00:00Z,30.2513,-88.0778,1.889,11.62,1111122 
DISL,ioos:station:DISL:DISL:1,2010-01-05T03:30:00Z,30.2513,-88.0778,1.872,11.59,1111122 
DISL,ioos:station:DISL:DISL:1,2010-01-05T04:00:00Z,30.2513,-88.0778,1.878,11.62,1111122 
DISL,ioos:station:DISL:DISL:1,2010-01-05T04:30:00Z,30.2513,-88.0778,1.867,11.63,1111122 
DISL,ioos:station:DISL:DISL:1,2010-01-05T05:00:00Z,30.2513,-88.0778,1.852,11.68,1111122 
DISL,ioos:station:DISL:DISL:1,2010-01-05T05:30:00Z,30.2513,-88.0778,1.83,11.69,1111122 
DISL,ioos:station:DISL:DISL:1,2010-01-05T06:00:00Z,30.2513,-88.0778,1.859,11.83,1111122 
DISL,ioos:station:DISL:DISL:1,2010-01-05T06:30:00Z,30.2513,-88.0778,1.843,11.85,1111122 
DISL,ioos:station:DISL:DISL:1,2010-01-05T07:00:00Z,30.2513,-88.0778,1.84,11.88,1111122 
DISL,ioos:station:DISL:DISL:1,2010-01-05T07:30:00Z,30.2513,-88.0778,1.833,11.94,1111122 
DISL,ioos:station:DISL:DISL:1,2010-01-05T08:00:00Z,30.2513,-88.0778,1.828,11.91,1111122 
DISL,ioos:station:DISL:DISL:1,2010-01-05T08:30:00Z,30.2513,-88.0778,1.839,11.92,1111122 
DISL,ioos:station:DISL:DISL:1,2010-01-05T09:00:00Z,30.2513,-88.0778,1.836,11.93,1111122 
DISL,ioos:station:DISL:DISL:1,2010-01-05T09:30:00Z,30.2513,-88.0778,1.819,11.9,1111122 
DISL,ioos:station:DISL:DISL:1,2010-01-05T10:00:00Z,30.2513,-88.0778,1.792,11.92,1111122 
DISL,ioos:station:DISL:DISL:1,2010-01-05T10:30:00Z,30.2513,-88.0778,1.775,11.93,1111122 
DISL,ioos:station:DISL:DISL:1,2010-01-05T11:00:00Z,30.2513,-88.0778,1.781,11.94,1111122 
DISL,ioos:station:DISL:DISL:1,2010-01-05T11:30:00Z,30.2513,-88.0778,1.727,11.95,1111122 
DISL,ioos:station:DISL:DISL:1,2010-01-05T12:00:00Z,30.2513,-88.0778,1.729,11.99,1111122 
DISL,ioos:station:DISL:DISL:1,2010-01-05T12:30:00Z,30.2513,-88.0778,1.716,12.03,1111122 
DISL,ioos:station:DISL:DISL:1,2010-01-05T13:00:00Z,30.2513,-88.0778,1.73,12.04,1111122 
DISL,ioos:station:DISL:DISL:1,2010-01-05T13:30:00Z,30.2513,-88.0778,1.71,12.19,1111122 
DISL,ioos:station:DISL:DISL:1,2010-01-05T14:00:00Z,30.2513,-88.0778,1.676,12.03,1111122 
DISL,ioos:station:DISL:DISL:1,2010-01-05T14:30:00Z,30.2513,-88.0778,1.682,11.88,1111122 
DISL,ioos:station:DISL:DISL:1,2010-01-05T15:00:00Z,30.2513,-88.0778,1.7,11.76,1111122 
DISL,ioos:station:DISL:DISL:1,2010-01-05T15:30:00Z,30.2513,-88.0778,1.707,11.85,1111122 
DISL,ioos:station:DISL:DISL:1,2010-01-05T16:00:00Z,30.2513,-88.0778,5.527,11.69,1111122 
DISL,ioos:station:DISL:DISL:1,2010-01-05T16:30:00Z,30.2513,-88.0778,5.46,11.73,1111122 
DISL,ioos:station:DISL:DISL:1,2010-01-05T17:00:00Z,30.2513,-88.0778,5.581,11.6,1111122 
DISL,ioos:station:DISL:DISL:1,2010-01-05T17:30:00Z,30.2513,-88.0778,5.485,11.57,1111122 
DISL,ioos:station:DISL:DISL:1,2010-01-05T18:00:00Z,30.2513,-88.0778,5.498,11.74,1111122 
DISL,ioos:station:DISL:DISL:1,2010-01-05T18:30:00Z,30.2513,-88.0778,5.515,11.83,1111122 
DISL,ioos:station:DISL:DISL:1,2010-01-05T19:00:00Z,30.2513,-88.0778,5.532,11.86,1111122 
DISL,ioos:station:DISL:DISL:1,2010-01-05T19:30:00Z,30.2513,-88.0778,5.538,11.87,1111122 
DISL,ioos:station:DISL:DISL:1,2010-01-05T20:00:00Z,30.2513,-88.0778,5.555,11.86,1111122 
DISL,ioos:station:DISL:DISL:1,2010-01-05T20:30:00Z,30.2513,-88.0778,5.583,11.92,1111122 
DISL,ioos:station:DISL:DISL:1,2010-01-05T21:00:00Z,30.2513,-88.0778,5.639,11.98,1111122 
DISL,ioos:station:DISL:DISL:1,2010-01-05T21:30:00Z,30.2513,-88.0778,5.657,12.05,1111122 
DISL,ioos:station:DISL:DISL:1,2010-01-05T22:00:00Z,30.2513,-88.0778,5.594,12.12,1111122 
DISL,ioos:station:DISL:DISL:1,2010-01-05T22:30:00Z,30.2513,-88.0778,5.657,12.5,1111122 
DISL,ioos:station:DISL:DISL:1,2010-01-05T23:00:00Z,30.2513,-88.0778,5.428,12.68,1111122 
DISL,ioos:station:DISL:DISL:1,2010-01-05T23:30:00Z,30.2513,-88.0778,5.673,12.69,1111122 
DISL,ioos:station:DISL:DISL:1,2010-01-06T00:00:00Z,30.2513,-88.0778,5.679,12.75,1111122 
DISL,ioos:station:DISL:DISL:1,2010-01-06T00:30:00Z,30.2513,-88.0778,5.652,12.73,1111122 
DISL,ioos:station:DISL:DISL:1,2010-01-06T01:00:00Z,30.2513,-88.0778,5.648,12.69,1111122 
DISL,ioos:station:DISL:DISL:1,2010-01-06T01:30:00Z,30.2513,-88.0778,5.728,12.68,1111122 
DISL,ioos:station:DISL:DISL:1,2010-01-06T02:00:00Z,30.2513,-88.0778,5.687,12.68,1111122 
DISL,ioos:station:DISL:DISL:1,2010-01-06T02:30:00Z,30.2513,-88.0778,5.712,12.37,1111122 
DISL,ioos:station:DISL:DISL:1,2010-01-06T03:00:00Z,30.2513,-88.0778,5.715,11.92,1111122 
DISL,ioos:station:DISL:DISL:1,2010-01-06T03:30:00Z,30.2513,-88.0778,5.711,11.83,1111122 
DISL,ioos:station:DISL:DISL:1,2010-01-06T04:00:00Z,30.2513,-88.0778,5.653,11.95,1111122 
DISL,ioos:station:DISL:DISL:1,2010-01-06T04:30:00Z,30.2513,-88.0778,5.729,12.05,1111122 
DISL,ioos:station:DISL:DISL:1,2010-01-06T05:00:00Z,30.2513,-88.0778,5.547,12.0,1111122 
DISL,ioos:station:DISL:DISL:1,2010-01-06T05:30:00Z,30.2513,-88.0778,5.608,12.04,1111122 
DISL,ioos:station:DISL:DISL:1,2010-01-06T06:00:00Z,30.2513,-88.0778,5.597,12.08,1111122 
DISL,ioos:station:DISL:DISL:1,2010-01-06T06:30:00Z,30.2513,-88.0778,5.536,12.12,1111122 
DISL,ioos:station:DISL:DISL:1,2010-01-06T07:00:00Z,30.2513,-88.0778,5.549,12.09,1111122 
DISL,ioos:station:DISL:DISL:1,2010-01-06T07:30:00Z,30.2513,-88.0778,5.589,12.05,1111122 
DISL,ioos:station:DISL:DISL:1,2010-01-06T08:00:00Z,30.2513,-88.0778,5.572,12.09,1111122 
DISL,ioos:station:DISL:DISL:1,2010-01-06T08:30:00Z,30.2513,-88.0778,5.56,12.08,1111122 
DISL,ioos:station:DISL:DISL:1,2010-01-06T09:00:00Z,30.2513,-88.0778,5.546,11.97,1111122 
DISL,ioos:station:DISL:DISL:1,2010-01-06T09:30:00Z,30.2513,-88.0778,5.527,11.9,1111122 
DISL,ioos:station:DISL:DISL:1,2010-01-06T10:00:00Z,30.2513,-88.0778,5.489,11.97,1111122 
DISL,ioos:station:DISL:DISL:1,2010-01-06T10:30:00Z,30.2513,-88.0778,5.459,11.91,1111122 
DISL,ioos:station:DISL:DISL:1,2010-01-06T11:00:00Z,30.2513,-88.0778,5.423,11.88,1111122 
DISL,ioos:station:DISL:DISL:1,2010-01-06T11:30:00Z,30.2513,-88.0778,5.412,11.81,1111122 
DISL,ioos:station:DISL:DISL:1,2010-01-06T12:00:00Z,30.2513,-88.0778,5.405,11.82,1111122 
DISL,ioos:station:DISL:DISL:1,2010-01-06T12:30:00Z,30.2513,-88.0778,5.421,11.72,1111122 
DISL,ioos:station:DISL:DISL:1,2010-01-06T13:00:00Z,30.2513,-88.0778,5.457,11.74,1111122 
DISL,ioos:station:DISL:DISL:1,2010-01-06T13:30:00Z,30.2513,-88.0778,5.465,11.74,1111122 
DISL,ioos:station:DISL:DISL:1,2010-01-06T14:00:00Z,30.2513,-88.0778,5.525,11.7,1111122 
DISL,ioos:station:DISL:DISL:1,2010-01-06T14:30:00Z,30.2513,-88.0778,5.571,11.69,1111122 
DISL,ioos:station:DISL:DISL:1,2010-01-06T15:00:00Z,30.2513,-88.0778,5.6,11.69,1111122 
DISL,ioos:station:DISL:DISL:1,2010-01-06T15:30:00Z,30.2513,-88.0778,5.678,11.7,1111122 
DISL,ioos:station:DISL:DISL:1,2010-01-06T16:00:00Z,30.2513,-88.0778,5.65,11.68,1111122 
DISL,ioos:station:DISL:DISL:1,2010-01-06T16:30:00Z,30.2513,-88.0778,5.649,11.64,1111122 
DISL,ioos:station:DISL:DISL:1,2010-01-06T17:00:00Z,30.2513,-88.0778,5.669,11.63,1111122 
DISL,ioos:station:DISL:DISL:1,2010-01-06T17:30:00Z,30.2513,-88.0778,5.7,11.68,1111122 
DISL,ioos:station:DISL:DISL:1,2010-01-06T18:00:00Z,30.2513,-88.0778,5.741,11.67,1111122 
DISL,ioos:station:DISL:DISL:1,2010-01-06T18:30:00Z,30.2513,-88.0778,5.785,11.46,1111122 
DISL,ioos:station:DISL:DISL:1,2010-01-06T19:00:00Z,30.2513,-88.0778,5.773,10.97,1111122 
DISL,ioos:station:DISL:DISL:1,2010-01-06T19:30:00Z,30.2513,-88.0778,5.816,11.03,1111122 
DISL,ioos:station:DISL:DISL:1,2010-01-06T20:00:00Z,30.2513,-88.0778,5.904,11.25,1111122 